Weather in London

United Kingdom     51°30′26″N   0°07′39″E
temp.,
°C
wind,
m/s
gust,
m/s
humid.,
%
clouds,
%
prec.,
mm/h
press.,
hPa
HPBL,
m
17 october, sun
sun1701:00+12s269387 0.0 1018193
04:00+11s2392100 0.0 101779
07:00+11s2493100 0.0 101789
10:00+13ssw3983100 0.0 1017537
13:00+16ssw4764100 0.0 1017873
16:00+16ssw376234 0.0 1017674
19:00+14ssw377459 0.0 1018433
22:00+12s27815 0.0 1019244
18 october, mon
mon1801:00+11sse118223 0.0 101830
04:00+11s1289100 0.0 101857
07:00+11sse2591100 0.0 1018117
10:00+14sse31078100 0.0 1017500
13:00+16s41169100 0.0 1016744
16:00+14s41185100 0.4 1015582
19:00+15s41290100 0.6 1014805
22:00+15s41195100 0.0 1014614
19 october, tue
tue1901:00+15sw3896100 0.1 1014403
04:00+14ssw3996100 0.0 1014346
07:00+15ssw41394100 0.1 1013527
10:00+17ssw61591100 0.6 1013898
13:00+18sw61479100 0.7 1012998
16:00+17ssw51386100 0.1 1011738
19:00+17ssw51492100 1.9 1010805
22:00+17ssw61573100 1.2 1007892
20 october, wed
wed2001:00+17ssw81873100 1.3 10041230
04:00+16ssw71687100 3.3 10021104
07:00+15sw714845 4.4 10001080
10:00+15sw7167836 1.7 9991589
13:00+14wsw715635 2.2 10001722
16:00+15sw6135798 0.0 9981715
19:00+12sw51278100 2.3 9951278
22:00+11wsw61383100 0.3 9971322
21 october, thu
thu2101:00+10wsw513765 0.5 10021045
04:00+12sw81678100 0.0 10001231
07:00+12sw7147885 0.0 9991125
10:00+12wsw6128349 1.4 9981112
13:00+13wnw6116576 1.6 9991133
16:00+10nnw61179100 0.4 10021117
19:00+10nnw6117394 0.9 10071173
22:00+9nnw59685 0.1 10111003